EW5345 Weather Reports


time (UTC)temp
C
wind
direction
speed
KPH
gust
KPH
rain 1hr
cm
rain 24hr
cm
rain mn
cm
humidity
%
barometer
mb
20260510093046 17 38 9.7 22.5 0.00 0.15 0.00 81 1012.2
20260510091544 17 47 12.9 24.1 0.00 0.15 0.00 81 1012.2
20260510090041 17 33 12.9 22.5 0.00 0.15 0.00 80 1012.0
20260510084541 18 59 8.0 22.5 0.00 0.15 0.00 79 1011.8
20260510083040 18 65 16.1 29.0 0.00 0.15 0.00 78 1011.8
20260510081538 18 64 11.3 27.4 0.00 0.15 0.00 79 1011.7
20260510080041 18 63 11.3 25.7 0.00 0.15 0.00 80 1011.6
20260510074542 18 65 11.3 24.1 0.00 0.15 0.00 78 1011.7
20260510073040 18 30 14.5 40.2 0.00 0.15 0.00 77 1011.7
20260510071537 18 46 14.5 24.1 0.00 0.15 0.00 77 1011.6
20260510070033 18 49 11.3 22.5 0.00 0.15 0.00 77 1011.4
20260510064544 18 29 11.3 24.1 0.00 0.15 0.00 79 1011.3
20260510063028 18 47 12.9 22.5 0.00 0.15 0.00 79 1011.3
20260510061529 17 43 9.7 33.8 0.00 0.15 0.00 81 1011.1
20260510060022 17 55 11.3 29.0 0.00 0.15 0.00 81 1011.1
20260510054520 17 67 19.3 37.0 0.00 0.15 0.00 81 1010.9
20260510053035 17 62 17.7 45.1 0.00 0.15 0.00 81 1010.6
20260510051515 17 46 19.3 32.2 0.00 0.15 0.00 81 1010.5
20260510050036 17 59 20.9 37.0 0.00 0.15 0.00 80 1010.4
20260510044534 17 67 19.3 33.8 0.00 0.15 0.00 80 1010.5
20260510043029 17 15 19.3 45.1 0.00 0.15 0.00 79 1010.3
20260510041528 17 45 16.1 33.8 0.00 0.15 0.00 78 1010.5
20260510040028 17 49 17.7 33.8 0.00 0.15 0.00 76 1010.6
20260510034521 17 34 17.7 29.0 0.00 0.15 0.00 75 1010.6
20260510033020 17 45 14.5 27.4 0.00 0.15 0.00 75 1010.8
20260510031524 17 28 14.5 27.4 0.00 0.15 0.00 74 1010.7
20260510030016 17 41 14.5 27.4 0.00 0.15 0.00 74 1010.8
20260510024515 17 63 9.7 25.7 0.00 0.15 0.00 74 1010.9
20260510023014 17 62 17.7 29.0 0.00 0.15 0.00 74 1011.0
20260510021511 17 39 6.4 19.3 0.00 0.15 0.00 74 1011.0
20260510020011 17 42 4.8 16.1 0.00 0.15 0.00 74 1011.2
20260510014513 17 340 1.6 12.9 0.00 0.15 0.00 73 1011.3
20260510013009 17 9 3.2 17.7 0.00 0.15 0.00 73 1011.4
20260510011507 17 19 6.4 14.5 0.00 0.15 0.00 75 1011.5
20260510010006 17 44 3.2 24.1 0.00 0.15 0.00 76 1011.3
20260510004505 17 51 8.0 19.3 0.00 0.15 0.00 77 1011.2
20260510003004 17 49 8.0 22.5 0.00 0.15 0.00 77 1011.1
20260510001601 16 53 9.7 24.1 0.00 0.15 0.00 78 1011.2
20260510000125 16 44 11.3 24.1 0.00 0.15 0.00 79 1011.5
20260509234555 16 5 4.8 12.9 0.00 0.15 0.00 80 1011.5
20260509233053 16 46 6.4 19.3 0.00 0.15 0.00 79 1011.9
20260509231553 16 20 3.2 8.0 0.00 0.15 0.00 80 1012.3
20260509230057 16 60 6.4 9.7 0.00 0.15 0.00 80 1012.3
20260509224549 16 98 3.2 9.7 0.00 0.15 0.00 81 1012.0
20260509223048 16 45 6.4 17.7 0.00 0.15 0.00 82 1011.8
20260509221551 16 5 8.0 16.1 0.03 0.15 0.00 81 1012.1
20260509220045 16 87 9.7 20.9 0.03 0.15 0.00 83 1011.7
20260509214553 16 75 11.3 19.3 0.05 0.15 0.15 85 1011.6
20260509213038 16 38 6.4 16.1 0.10 0.15 0.15 84 1012.0
20260509211536 16 34 6.4 17.7 0.13 0.13 0.13 83 1012.6
20260509210044 16 61 8.0 22.5 0.13 0.13 0.13 84 1012.7
20260509204537 16 57 12.9 24.1 0.10 0.10 0.10 83 1012.3
20260509203038 17 55 22.5 35.4 0.05 0.05 0.05 77 1012.6
20260509201532 18 63 17.7 29.0 0.00 0.00 0.00 69 1013.1
20260509200038 18 47 12.9 27.4 0.00 0.00 0.00 67 1012.7
20260509194545 18 39 6.4 20.9 0.00 0.00 0.00 68 1012.6
20260509193037 18 28 12.9 24.1 0.00 0.00 0.00 68 1012.3
20260509191533 18 32 12.9 24.1 0.00 0.00 0.00 68 1012.1
20260509190031 18 34 9.7 27.4 0.00 0.00 0.00 67 1012.1
20260509184532 18 15 9.7 19.3 0.00 0.00 0.00 66 1012.2
20260509183034 18 65 11.3 25.7 0.00 0.00 0.00 65 1012.1
20260509181528 19 339 9.7 19.3 0.00 0.00 0.00 65 1012.3
20260509180026 19 80 11.3 22.5 0.00 0.00 0.00 64 1012.5
20260509174540 19 29 12.9 27.4 0.00 0.00 0.00 61 1012.1
20260509173026 19 38 12.9 24.1 0.00 0.00 0.00 61 1012.1
20260509171534 20 55 11.3 20.9 0.00 0.00 0.00 61 1012.5
20260509170024 20 80 12.9 22.5 0.00 0.00 0.00 61 1012.6
20260509164524 20 63 16.1 29.0 0.00 0.00 0.00 60 1012.1
20260509163035 20 33 6.4 25.7 0.00 0.00 0.00 61 1012.2
20260509161528 20 30 16.1 33.8 0.00 0.00 0.00 61 1012.0
20260509160024 20 39 20.9 35.4 0.00 0.00 0.00 60 1011.9
20260509154519 21 22 11.3 29.0 0.00 0.00 0.00 61 1012.2
20260509153032 21 61 9.7 19.3 0.00 0.00 0.00 62 1012.5
20260509151516 22 15 9.7 20.9 0.00 0.00 0.00 61 1012.7
20260509150023 22 24 6.4 22.5 0.00 0.00 0.00 61 1012.9
20260509144511 22 16 9.7 24.1 0.00 0.00 0.00 60 1013.0
20260509143010 22 45 6.4 19.3 0.00 0.00 0.00 58 1013.3
20260509141506 22 21 8.0 20.9 0.00 0.00 0.00 57 1013.5
20260509140004 21 87 9.7 27.4 0.00 0.00 0.00 59 1013.8
20260509134500 21 65 17.7 27.4 0.00 0.00 0.00 58 1014.1
20260509133059 21 89 17.7 35.4 0.00 0.00 0.00 59 1014.3
20260509131558 21 71 16.1 30.6 0.00 0.00 0.00 58 1014.4
20260509130056 21 52 16.1 32.2 0.00 0.00 0.00 56 1014.6
20260509124554 21 59 22.5 33.8 0.00 0.00 0.00 53 1014.7
20260509123114 21 91 17.7 37.0 0.00 0.00 0.00 53 1014.7
20260509121558 21 64 17.7 33.8 0.00 0.00 0.00 53 1015.1
20260509120049 21 47 17.7 35.4 0.00 0.00 0.00 52 1015.2
20260509114547 21 46 20.9 40.2 0.00 0.00 0.00 52 1015.3
20260509113045 21 80 20.9 32.2 0.00 0.00 0.00 52 1015.6
20260509111543 21 45 24.1 32.2 0.00 0.00 0.00 55 1015.6
20260509110042 21 44 17.7 29.0 0.00 0.00 0.00 54 1015.7
20260509104542 21 57 22.5 40.2 0.00 0.00 0.00 52 1015.9
20260509103047 21 88 19.3 32.2 0.00 0.00 0.00 53 1016.0
20260509101538 21 49 17.7 32.2 0.00 0.00 0.00 53 1016.0
20260509100038 21 63 22.5 33.8 0.00 0.00 0.00 51 1016.0
20260509094536 21 87 17.7 27.4 0.00 0.00 0.00 51 1016.2